JST494 YWLM-YBCG

Flight info

Callsign JST494
Flight time 0h 54m
Altitude 37000
Route WLM V535 NICLA DCT BANDA Y43 GOMOL
Aircraft A320/M-SDE3FGHIRWY/LB1

Departure

Time 2026-04-23 06:09
Airport Newcastle Airport (YWLM)

Arrival

Time 2026-04-23 07:03
Airport Gold Coast Airport (YBCG)
Time Latitude Longitude Altitude Speed Heading
2026-04-23 05:56 -32.80345 151.83990 30 ft 0 kts 251°
2026-04-23 06:00 -32.80344 151.83992 29 ft 1 kts 251°
2026-04-23 06:00 -32.80339 151.84013 29 ft 3 kts 256°
2026-04-23 06:00 -32.80334 151.84036 29 ft 3 kts 262°
2026-04-23 06:01 -32.80332 151.84057 28 ft 1 kts 265°
2026-04-23 06:01 -32.80332 151.84060 28 ft 0 kts 265°
2026-04-23 06:05 -32.80331 151.84057 28 ft 2 kts 273°
2026-04-23 06:05 -32.80290 151.83991 30 ft 19 kts 309°
2026-04-23 06:06 -32.80183 151.83854 30 ft 24 kts 315°
2026-04-23 06:06 -32.80024 151.83837 32 ft 25 kts
2026-04-23 06:06 -32.79848 151.83882 32 ft 27 kts 29°
2026-04-23 06:06 -32.79767 151.83987 34 ft 15 kts 20°
2026-04-23 06:07 -32.79691 151.83911 32 ft 16 kts 310°
2026-04-23 06:07 -32.79612 151.83799 31 ft 19 kts 310°
2026-04-23 06:07 -32.79514 151.83662 29 ft 24 kts 310°
2026-04-23 06:07 -32.79403 151.83508 30 ft 26 kts 310°
2026-04-23 06:08 -32.79280 151.83339 32 ft 28 kts 311°
2026-04-23 06:08 -32.79153 151.83160 33 ft 30 kts 310°
2026-04-23 06:08 -32.79174 151.83042 34 ft 17 kts 221°
2026-04-23 06:08 -32.79258 151.83024 32 ft 15 kts 143°
2026-04-23 06:09 -32.79432 151.83262 29 ft 72 kts 130°
2026-04-23 06:09 -32.79895 151.83905 35 ft 130 kts 130°
2026-04-23 06:09 -32.80553 151.84828 390 ft 148 kts 129°
2026-04-23 06:09 -32.81201 151.85728 1074 ft 144 kts 133°
2026-04-23 06:10 -32.81866 151.86643 1651 ft 145 kts 132°
2026-04-23 06:10 -32.82316 151.87753 1966 ft 168 kts 91°
2026-04-23 06:10 -32.81820 151.89097 2168 ft 198 kts 47°
2026-04-23 06:10 -32.80600 151.90069 2313 ft 224 kts 36°
2026-04-23 06:11 -32.79270 151.91190 2538 ft 242 kts 41°
2026-04-23 06:11 -32.77949 151.92444 3245 ft 246 kts 43°
2026-04-23 06:11 -32.76621 151.93728 4228 ft 247 kts 42°
2026-04-23 06:11 -32.75128 151.94801 5176 ft 256 kts 24°
2026-04-23 06:12 -32.73351 151.95252 5949 ft 273 kts
2026-04-23 06:12 -32.72124 151.95117 6368 ft 284 kts 348°
2026-04-23 06:12 -32.71914 151.95061 6449 ft 285 kts 347°
2026-04-23 06:13 -32.69974 151.94482 7341 ft 290 kts 346°
2026-04-23 06:13 -32.67999 151.93906 8231 ft 295 kts 347°
2026-04-23 06:13 -32.65990 151.93335 9156 ft 299 kts 348°
2026-04-23 06:13 -32.63951 151.92765 10068 ft 304 kts 348°
2026-04-23 06:14 -32.61830 151.92180 10566 ft 324 kts 349°
2026-04-23 06:14 -32.59558 151.91556 10936 ft 343 kts 348°
2026-04-23 06:14 -32.57238 151.90912 11626 ft 350 kts 348°
2026-04-23 06:14 -32.54824 151.90239 12394 ft 355 kts 348°
2026-04-23 06:15 -32.52437 151.89572 13169 ft 359 kts 348°
2026-04-23 06:15 -32.49989 151.88923 13927 ft 363 kts 348°
2026-04-23 06:15 -32.47511 151.88244 14621 ft 368 kts 348°
2026-04-23 06:15 -32.44984 151.87651 15269 ft 372 kts 355°
2026-04-23 06:16 -32.42392 151.87580 15898 ft 374 kts
2026-04-23 06:16 -32.39828 151.88120 16536 ft 376 kts 19°
2026-04-23 06:16 -32.37312 151.89025 17182 ft 380 kts 20°
2026-04-23 06:16 -32.34767 151.89944 17824 ft 385 kts 20°
2026-04-23 06:17 -32.32187 151.90869 18476 ft 390 kts 20°
2026-04-23 06:17 -32.29644 151.91773 19052 ft 395 kts 19°
2026-04-23 06:19 -32.27349 151.92591 19560 ft 398 kts 19°
2026-04-23 06:19 -32.24683 151.93536 20177 ft 402 kts 19°
2026-04-23 06:19 -32.21999 151.94486 20797 ft 405 kts 19°
2026-04-23 06:19 -32.19284 151.95444 21385 ft 409 kts 19°
2026-04-23 06:20 -32.16546 151.96407 21938 ft 413 kts 19°
2026-04-23 06:20 -32.13775 151.97384 22484 ft 417 kts 19°
2026-04-23 06:20 -32.10978 151.98368 23049 ft 421 kts 19°
2026-04-23 06:20 -32.08194 151.99349 23613 ft 426 kts 19°
2026-04-23 06:21 -32.07199 151.99699 23821 ft 427 kts 19°
2026-04-23 06:22 -32.06438 151.99965 23958 ft 428 kts 19°
2026-04-23 06:22 -32.03586 152.01023 24436 ft 431 kts 21°
2026-04-23 06:22 -32.00760 152.02232 24904 ft 434 kts 24°
2026-04-23 06:22 -31.97947 152.03546 25368 ft 437 kts 25°
2026-04-23 06:23 -31.95126 152.04917 25812 ft 440 kts 25°
2026-04-23 06:23 -31.92286 152.06300 26247 ft 444 kts 25°
2026-04-23 06:23 -31.89416 152.07673 26682 ft 447 kts 24°
2026-04-23 06:23 -31.86513 152.09031 27105 ft 451 kts 24°
2026-04-23 06:24 -31.83577 152.10384 27536 ft 454 kts 23°
2026-04-23 06:24 -31.80626 152.11731 27941 ft 458 kts 23°
2026-04-23 06:24 -31.77642 152.13086 28365 ft 461 kts 23°
2026-04-23 06:24 -31.74644 152.14449 28772 ft 464 kts 22°
2026-04-23 06:25 -31.71625 152.15823 29173 ft 467 kts 22°
2026-04-23 06:25 -31.68587 152.17208 29569 ft 470 kts 22°
2026-04-23 06:25 -31.65571 152.18585 29965 ft 473 kts 22°
2026-04-23 06:25 -31.62496 152.19992 30368 ft 476 kts 22°
2026-04-23 06:26 -31.59402 152.21407 30724 ft 478 kts 22°
2026-04-23 06:26 -31.56294 152.22825 31087 ft 480 kts 22°
2026-04-23 06:26 -31.53174 152.24248 31449 ft 482 kts 22°
2026-04-23 06:26 -31.50045 152.25672 31826 ft 483 kts 21°
2026-04-23 06:27 -31.46907 152.27099 32192 ft 484 kts 21°
2026-04-23 06:27 -31.43766 152.28526 32642 ft 483 kts 21°
2026-04-23 06:27 -31.40639 152.29946 33155 ft 481 kts 21°
2026-04-23 06:27 -31.37520 152.31362 33680 ft 479 kts 20°
2026-04-23 06:28 -31.34421 152.32769 34198 ft 477 kts 20°
2026-04-23 06:28 -31.31336 152.34170 34671 ft 475 kts 20°
2026-04-23 06:28 -31.28262 152.35567 35097 ft 473 kts 20°
2026-04-23 06:28 -31.25199 152.36957 35500 ft 472 kts 20°
2026-04-23 06:29 -31.22140 152.38343 35892 ft 471 kts 20°
2026-04-23 06:29 -31.19079 152.39725 36277 ft 470 kts 20°
2026-04-23 06:29 -31.16034 152.41098 36645 ft 470 kts 20°
2026-04-23 06:29 -31.12981 152.42470 37006 ft 469 kts 19°
2026-04-23 06:30 -31.09938 152.43839 37285 ft 469 kts 19°
2026-04-23 06:30 -31.06899 152.45210 37334 ft 467 kts 19°
2026-04-23 06:30 -31.00862 152.47932 37342 ft 464 kts 19°
2026-04-23 06:31 -30.94843 152.50647 37340 ft 464 kts 19°
2026-04-23 06:31 -30.88862 152.53333 37346 ft 464 kts 19°
2026-04-23 06:32 -30.82829 152.56035 37341 ft 465 kts 19°
2026-04-23 06:32 -30.76794 152.58747 37343 ft 465 kts 19°
2026-04-23 06:33 -30.70781 152.61545 37348 ft 466 kts 20°
2026-04-23 06:33 -30.64768 152.64370 37349 ft 466 kts 20°
2026-04-23 06:34 -30.58756 152.67165 37346 ft 465 kts 19°
2026-04-23 06:34 -30.52745 152.69940 37351 ft 465 kts 19°
2026-04-23 06:35 -30.46737 152.72701 37356 ft 464 kts 19°
2026-04-23 06:35 -30.40736 152.75471 37355 ft 464 kts 19°
2026-04-23 06:36 -30.34736 152.78237 37344 ft 464 kts 19°
2026-04-23 06:36 -30.28734 152.80988 37346 ft 464 kts 19°
2026-04-23 06:37 -30.22773 152.83721 37357 ft 464 kts 19°
2026-04-23 06:37 -30.16760 152.86481 37318 ft 465 kts 19°
2026-04-23 06:38 -30.10753 152.89234 37337 ft 464 kts 18°
2026-04-23 06:38 -30.04749 152.91976 37335 ft 464 kts 18°
2026-04-23 06:39 -29.98752 152.94714 37326 ft 463 kts 19°
2026-04-23 06:39 -29.92760 152.97455 37320 ft 463 kts 18°
2026-04-23 06:40 -29.86769 153.00187 37324 ft 463 kts 18°
2026-04-23 06:40 -29.80773 153.02909 37324 ft 463 kts 18°
2026-04-23 06:41 -29.74818 153.05611 37312 ft 464 kts 18°
2026-04-23 06:41 -29.68807 153.08336 37291 ft 465 kts 18°
2026-04-23 06:42 -29.62794 153.11062 37306 ft 465 kts 18°
2026-04-23 06:42 -29.56779 153.13780 37327 ft 465 kts 18°
2026-04-23 06:43 -29.50784 153.16493 36805 ft 458 kts 18°
2026-04-23 06:43 -29.47814 153.17836 35712 ft 459 kts 18°
2026-04-23 06:43 -29.44846 153.19173 34786 ft 455 kts 18°
2026-04-23 06:44 -29.42900 153.20052 34276 ft 451 kts 18°
2026-04-23 06:44 -29.40001 153.21364 33383 ft 445 kts 19°
2026-04-23 06:44 -29.37142 153.22655 32474 ft 440 kts 19°
2026-04-23 06:44 -29.34301 153.23936 31598 ft 436 kts 19°
2026-04-23 06:45 -29.31494 153.25199 30745 ft 432 kts 19°
2026-04-23 06:45 -29.28704 153.26451 29851 ft 429 kts 19°
2026-04-23 06:45 -29.25941 153.27691 28972 ft 424 kts 20°
2026-04-23 06:45 -29.23208 153.28917 28146 ft 419 kts 20°
2026-04-23 06:46 -29.20506 153.30127 27400 ft 414 kts 20°
2026-04-23 06:46 -29.17847 153.31319 26668 ft 409 kts 21°
2026-04-23 06:46 -29.15216 153.32500 25942 ft 404 kts 21°
2026-04-23 06:46 -29.12611 153.33671 25209 ft 399 kts 21°
2026-04-23 06:47 -29.10039 153.34824 24492 ft 395 kts 22°
2026-04-23 06:47 -29.07527 153.35950 23780 ft 391 kts 22°
2026-04-23 06:47 -29.05008 153.37076 22932 ft 387 kts 22°
2026-04-23 06:47 -29.02518 153.38190 22120 ft 382 kts 22°
2026-04-23 06:48 -29.00059 153.39291 21332 ft 378 kts 22°
2026-04-23 06:48 -28.97628 153.40379 20582 ft 373 kts 22°
2026-04-23 06:48 -28.95222 153.41454 20032 ft 370 kts 22°
2026-04-23 06:48 -28.92832 153.42520 19792 ft 369 kts 22°
2026-04-23 06:49 -28.90439 153.43585 19565 ft 369 kts 22°
2026-04-23 06:49 -28.88051 153.44647 19324 ft 368 kts 22°
2026-04-23 06:49 -28.85659 153.45707 19079 ft 368 kts 22°
2026-04-23 06:49 -28.83284 153.46763 18854 ft 367 kts 22°
2026-04-23 06:50 -28.80915 153.47816 18613 ft 363 kts 22°
2026-04-23 06:50 -28.78572 153.48857 18178 ft 361 kts 22°
2026-04-23 06:50 -28.76228 153.49901 17350 ft 362 kts 22°
2026-04-23 06:50 -28.73880 153.50948 16222 ft 366 kts 23°
2026-04-23 06:51 -28.71505 153.52011 15282 ft 366 kts 23°
2026-04-23 06:51 -28.69148 153.53062 14434 ft 362 kts 23°
2026-04-23 06:51 -28.66820 153.54095 13894 ft 356 kts 23°
2026-04-23 06:51 -28.64523 153.55112 13448 ft 352 kts 23°
2026-04-23 06:52 -28.62250 153.56115 13013 ft 349 kts 23°
2026-04-23 06:52 -28.59998 153.57110 12605 ft 346 kts 23°
2026-04-23 06:52 -28.57768 153.58098 12185 ft 343 kts 23°
2026-04-23 06:52 -28.55554 153.59080 11768 ft 340 kts 24°
2026-04-23 06:53 -28.53396 153.60034 11549 ft 331 kts 24°
2026-04-23 06:53 -28.51266 153.60945 11108 ft 319 kts 22°
2026-04-23 06:53 -28.49210 153.61747 10593 ft 312 kts 21°
2026-04-23 06:53 -28.47168 153.62506 10121 ft 306 kts 21°
2026-04-23 06:54 -28.45135 153.63252 10017 ft 308 kts 21°
2026-04-23 06:54 -28.43091 153.64002 9575 ft 309 kts 21°
2026-04-23 06:54 -28.41054 153.64755 8853 ft 308 kts 21°
2026-04-23 06:54 -28.39044 153.65501 8403 ft 298 kts 21°
2026-04-23 06:55 -28.37105 153.66210 8026 ft 288 kts 21°
2026-04-23 06:55 -28.35232 153.66887 7672 ft 278 kts 21°
2026-04-23 06:55 -28.33406 153.67547 7328 ft 276 kts 21°
2026-04-23 06:55 -28.31578 153.68208 6975 ft 275 kts 21°
2026-04-23 06:56 -28.29687 153.68673 6626 ft 281 kts
2026-04-23 06:56 -28.27724 153.68603 6251 ft 285 kts 352°
2026-04-23 06:56 -28.25816 153.67986 5887 ft 286 kts 336°
2026-04-23 06:56 -28.24023 153.67003 5527 ft 288 kts 333°
2026-04-23 06:57 -28.22229 153.66006 5303 ft 283 kts 333°
2026-04-23 06:57 -28.20491 153.65045 5226 ft 273 kts 333°
2026-04-23 06:57 -28.18819 153.64122 5118 ft 262 kts 333°
2026-04-23 06:57 -28.17211 153.63234 5008 ft 252 kts 333°
2026-04-23 06:58 -28.15665 153.62370 4886 ft 243 kts 330°
2026-04-23 06:58 -28.14319 153.61305 4570 ft 242 kts 319°
2026-04-23 06:58 -28.12963 153.60067 3905 ft 256 kts 318°
2026-04-23 06:58 -28.11590 153.58808 3560 ft 249 kts 319°
2026-04-23 06:59 -28.10283 153.57615 3411 ft 233 kts 319°
2026-04-23 06:59 -28.09081 153.56513 3337 ft 212 kts 315°
2026-04-23 06:59 -28.08125 153.55292 3013 ft 204 kts 297°
2026-04-23 06:59 -28.07502 153.53899 2730 ft 194 kts 282°
2026-04-23 07:00 -28.07190 153.52447 2471 ft 185 kts 267°
2026-04-23 07:00 -28.07168 153.51028 2231 ft 177 kts 254°
2026-04-23 07:00 -28.07399 153.49700 2002 ft 165 kts 240°
2026-04-23 07:00 -28.07923 153.48633 1789 ft 147 kts 222°
2026-04-23 07:01 -28.08626 153.47901 1615 ft 128 kts 207°
2026-04-23 07:01 -28.09411 153.47465 1445 ft 124 kts 192°
2026-04-23 07:01 -28.10257 153.47282 1277 ft 124 kts 179°
2026-04-23 07:01 -28.11118 153.47361 1102 ft 126 kts 167°
2026-04-23 07:02 -28.11937 153.47703 946 ft 125 kts 156°
2026-04-23 07:02 -28.12711 153.48194 735 ft 129 kts 154°
2026-04-23 07:02 -28.13497 153.48699 535 ft 130 kts 152°
2026-04-23 07:02 -28.14286 153.49205 357 ft 131 kts 155°
2026-04-23 07:03 -28.15059 153.49697 206 ft 124 kts 156°
2026-04-23 07:03 -28.15817 153.50180 52 ft 125 kts 155°
2026-04-23 07:03 -28.16493 153.50606 27 ft 88 kts 150°
2026-04-23 07:03 -28.16842 153.50828 28 ft 29 kts 152°
2026-04-23 07:04 -28.16943 153.50933 28 ft 12 kts 89°
2026-04-23 07:04 -28.16910 153.51020 26 ft 11 kts 59°
2026-04-23 07:04 -28.16887 153.51069 29 ft 6 kts 61°
2026-04-23 07:04 -28.16857 153.51122 28 ft 10 kts 44°
2026-04-23 07:05 -28.16789 153.51116 29 ft 10 kts 332°
2026-04-23 07:05 -28.16756 153.51134 30 ft 7 kts 59°
2026-04-23 07:05 -28.16727 153.51192 28 ft 8 kts 60°
2026-04-23 07:05 -28.16719 153.51208 26 ft 0 kts 60°